Regional Weather Roundup
Issued by NWS Little Rock, AR

Home | Current Version | Previous Version | Graphics & Text | Print | Product List | Glossary On
Versions: 1 2 3 4 5 6 7 8 9 10 11 12 13 14 15 16 17 18 19 20 21 22 23 24 25 26 27 28 29 30 31 32 33 34 35 36 37 38 39 40 41 42 43 44 45 46 47 48 49 50
000
ASUS44 KLZK 050305
RWRLZK

WEATHER ROUNDUP FOR ARKANSAS
NATIONAL WEATHER SERVICE LITTLE ROCK AR
1000 PM CDT SAT JUL 04 2015

NOTE: "FAIR" INDICATES FEW OR NO CLOUDS BELOW 12,000 FEET WITH NO
SIGNIFICANT WEATHER AND/OR OBSTRUCTIONS TO VISIBILITY.

ARZ001-003-010-029-050400-
NORTHWEST ARKANSAS

CITY           SKY/WX    TMP DP  RH WIND       PRES   REMARKS
FAYETTEVILLE   CLEAR     72  70  93 S5        29.99R
FORT SMITH     CLEAR     81  71  71 SW6       29.94R HX  85
HARRISON       CLEAR     73  70  90 SE7       30.01R
BENTONVILLE    CLEAR     75  66  73 SE5       29.99R
ROGERS         CLEAR     76  70  82 SE6       30.00R
SILOAM SPGS    MOCLDY    75  66  73 SE5         N/A
HIGHFILL       CLEAR     77  70  79 E5        29.98R
$$

ARZ004-005-016-050400-
NORTH CENTRAL ARKANSAS

CITY           SKY/WX    TMP DP  RH WIND       PRES   REMARKS
BATESVILLE     CLEAR     73  70  88 E5        29.99R
FLIPPIN          N/A     75  68  78 CALM      29.98R
MTN HOME       CLEAR     73  69  87 SE3       30.00R
$$

ARZ040-041-050400-
WEST CENTRAL ARKANSAS

CITY           SKY/WX    TMP DP  RH WIND       PRES   REMARKS
MENA           CLEAR     77  73  88 CALM      30.01R
MOUNT IDA      PTCLDY    75  71  87 CALM      29.98R
$$

ARZ009-017-025-026-028-050400-
NORTHEAST ARKANSAS

CITY           SKY/WX    TMP DP  RH WIND       PRES   REMARKS
JONESBORO      CLOUDY    74  73  97 S5        30.00R
NEWPORT        LGT RAIN  76  75  96 SE3       30.00R
WALNUT RIDGE   PTCLDY    75  70  83 SE3       30.00R
BLYTHEVILLE    MOCLDY    73  73 100 S3        30.00R
$$

ARZ022-023-033-042-044-050400-
CENTRAL ARKANSAS

CITY           SKY/WX    TMP DP  RH WIND       PRES   REMARKS
LITTLE ROCK    PTCLDY    75  70  84 S6        29.99R
N LITTLE ROCK  PTCLDY    76  73  88 S7        29.99R
JACKSONVILLE   PTCLDY    76  71  85 SE5       29.99R
SEARCY         CLOUDY    75  72  90 S5        30.01R
HOT SPRINGS    CLEAR     76  70  82 S3        30.00R
RUSSELLVILLE   CLOUDY    74  71  91 S3        29.98R
$$

ARZ036-050400-
EAST ARKANSAS

CITY           SKY/WX    TMP DP  RH WIND       PRES   REMARKS
WEST MEMPHIS   MOCLDY    74  73  97 SE3       30.00R
$$

ARZ050-053-066-070-073-050400-
SOUTHWEST ARKANSAS

CITY           SKY/WX    TMP DP  RH WIND       PRES   REMARKS
ARKADELPHIA    FAIR      74  73  96 S6        30.01R
CAMDEN         CLEAR     72  68  88 MISG      30.00S
TEXARKANA      CLOUDY    71  70  96 S7        30.01R
EL DORADO      CLEAR     70  69  97 S5        30.01R
DE QUEEN       PTCLDY    73  72  96 CALM      29.98R
$$

ARZ056-057-069-050400-
SOUTHEAST ARKANSAS

CITY           SKY/WX    TMP DP  RH WIND       PRES   REMARKS
PINE BLUFF     CLEAR     73  70  90 S8        30.01R
STUTTGART      PTCLDY    75  66  73 S9        29.99R
MONTICELLO     CLEAR     72  71  97 CALM      30.01R

$$





USA.gov is the U.S. government's official web portal to all federal, state and local government web resources and services.